Home   Weather   Rankin Inlet   Past weeks

Flag for Canada Past Weather in Rankin Inlet, Nunavut, Canada — Yesterday and Last 2 Weeks

Now
43 °F

Passing clouds.


Feels Like: 36 °F
Forecast: 43 / 46 °F
Wind: 13 mph from Southeast

Location: Rankin Inlet

Current Time: Sep 25, 2016 at 7:16:27 AM

Latest Report: Sep 25, 2016 at 6:00 AM


Visibility: 15 mi

Pressure: 30.02 "Hg

Humidity: 100%

Dew Point: 43 °F

Location of Rankin InletLocation

Past Weather in Rankin Inlet — Graph

°F

Rankin Inlet Temperature Yesterday

Maximum temperature yesterday: 50 °F (at 2:00 PM)
Minimum temperature yesterday: 37 °F (at 7:00 AM)
Average temperature yesterday: 45 °F

High & Low Weather Summary for the Past Weeks

 TemperatureHumidityPressure
High52 °F (Sep 10, 2:00 PM)100% (Sep 12, 6:46 AM)30.16 "Hg (Sep 12, 6:46 AM)
Low32 °F (Sep 15, 2:00 AM)52% (Sep 14, 5:00 PM)29.33 "Hg (Sep 20, 3:00 AM)
Average41 °F85%29.83 "Hg
* Reported Sep 10 6:00 AM — Sep 25 6:00 AM, Rankin Inlet, Weather by CustomWeather, © 2016

Note: Actual official high and low records may vary slightly from our data, if they occured in-between our weather recording intervals... More about our weather records

Advertising

Rankin Inlet Weather History for the Previous 24 Hours

Scroll right to see more
 ConditionsComfort  
Time TempWeatherWind HumidityBarometerVisibility
6:00 AM
Sun, Sep 25
43 °FPassing clouds.13 mph100%30.02 "Hg15 mi
5:00 AM43 °FPassing clouds.13 mph100%30.03 "Hg15 mi
4:00 AM43 °FPassing clouds.13 mph100%30.05 "Hg15 mi
3:00 AM43 °FPassing clouds.10 mph100%30.06 "Hg15 mi
2:00 AM43 °FPassing clouds.12 mph100%30.06 "Hg15 mi
1:00 AM43 °FClear.13 mph100%30.07 "Hg15 mi
12:00 AM45 °FPassing clouds.10 mph93%30.08 "Hg15 mi
11:00 PM
Sat, Sep 24
43 °FPassing clouds.9 mph100%30.09 "Hg15 mi
10:00 PM45 °FPassing clouds.12 mph93%30.09 "Hg15 mi
9:00 PM45 °FPassing clouds.13 mph93%30.09 "Hg15 mi
8:00 PM46 °FPassing clouds.9 mph87%30.10 "Hg15 mi
7:00 PM45 °FPassing clouds.8 mph93%30.10 "Hg15 mi
6:00 PM46 °FPartly sunny.9 mph87%30.09 "Hg15 mi
5:00 PM48 °FScattered clouds.12 mph87%30.09 "Hg15 mi
4:00 PM48 °FScattered clouds.10 mph87%30.09 "Hg15 mi
3:00 PM48 °FScattered clouds.10 mph87%30.09 "Hg15 mi
2:00 PM50 °FPassing clouds.7 mph82%30.09 "Hg15 mi
1:00 PM48 °FPassing clouds.8 mph87%30.09 "Hg15 mi
12:00 PM48 °FPassing clouds.7 mph87%30.09 "Hg15 mi
11:00 AM46 °FPassing clouds.7 mph93%30.08 "Hg15 mi
10:00 AM46 °FPassing clouds.5 mph93%30.08 "Hg15 mi
9:00 AM45 °FPassing clouds.6 mph93%30.07 "Hg15 mi
8:00 AM41 °FPassing clouds.5 mph100%30.06 "Hg15 mi
7:00 AM37 °FSunny.3 mph100%30.06 "Hg10 mi
Weather by CustomWeather, © 2016

See weather overviewHow to use our weather pages